Date String (YYYY-MM-DD hh:mm:ss) UTC,Instrument flags,Ambient pressure (hPa),Sample flow (lpm),Bypass flow (lpm),Sample temperature (°C),Ambient temperature (°C),ASC tube jacket temperature (°C),LED temperature (°C),Box temperature (°C),Sample RH (%),Span deviation,Mass concentration (μg/m³),Mass concentration (μg/m³),Mass concentration (μg/m³)
DateTimeUTC,F1_M11,P_M11,Q1_M11,Q2_M11,T1_M11,T2_M11,T3_M11,T4_M11,T5_M11,U1_M11,ZSPAN_M11,X0_M11,X2_M11,X1_M11
2021-12-29 18:00:00,,0814.4,4.99,0.00,22.4,22.8,00.0,31.2,24.2,07.2,0000.0,0009.03,0001.99,0001.19
2021-12-29 18:01:00,,0814.4,5.01,0.00,22.4,22.5,00.0,31.2,24.1,07.2,0000.0,0010.16,0002.03,0001.20
2021-12-29 18:02:00,,0814.4,4.99,0.00,22.3,22.3,00.0,31.3,24.1,07.2,0000.0,0010.43,0002.00,0001.18
2021-12-29 18:03:00,,0814.5,5.01,0.00,22.3,22.2,00.0,31.3,24.0,07.2,0000.0,0009.95,0001.96,0001.16
2021-12-29 18:04:00,,0814.1,4.99,0.00,22.3,22.1,00.0,31.3,24.0,07.2,0000.0,0009.06,0001.94,0001.16
2021-12-29 18:05:00,,0813.9,5.00,0.00,22.3,22.0,00.0,31.3,23.9,07.2,0000.0,0008.95,0001.95,0001.17
2021-12-29 18:06:00,,0814.1,5.00,0.00,22.3,21.9,00.0,31.3,23.9,07.2,0000.0,0009.21,0001.98,0001.17
2021-12-29 18:07:00,,0814.1,5.02,0.00,22.2,21.8,00.0,31.3,23.8,07.2,0000.0,0009.32,0001.98,0001.18
2021-12-29 18:08:00,,0814.1,4.99,0.00,22.2,21.7,00.0,31.3,23.8,07.2,0000.0,0009.54,0001.97,0001.20
2021-12-29 18:09:00,,0814.3,5.01,0.00,22.2,21.6,00.0,31.2,23.8,07.2,0000.0,0009.71,0002.06,0001.21
2021-12-29 18:10:00,,0814.2,5.00,0.00,22.2,21.6,00.0,31.2,23.8,07.3,0000.0,0009.28,0002.10,0001.21
2021-12-29 18:11:00,,0814.0,4.99,0.00,22.2,21.6,00.0,31.2,23.8,07.3,0000.0,0008.45,0002.14,0001.20
2021-12-29 18:12:00,,0814.1,5.01,0.00,22.2,21.6,00.0,31.2,23.8,07.3,0000.0,0007.38,0002.12,0001.20
2021-12-29 18:13:00,,0813.9,4.99,0.00,22.2,21.6,00.0,31.2,23.8,07.3,0000.0,0007.38,0002.21,0001.20
2021-12-29 18:14:00,,0813.9,5.01,0.00,22.2,21.5,00.0,31.2,23.8,07.2,0000.0,0007.79,0002.30,0001.21
2021-12-29 18:15:00,,0814.1,4.99,0.00,22.1,21.5,00.0,31.2,23.7,07.2,0000.0,0007.69,0002.35,0001.22
2021-12-29 18:16:00,,0814.3,5.01,0.00,22.1,21.5,00.0,31.2,23.7,07.2,0000.0,0007.71,0002.39,0001.23
2021-12-29 18:17:00,,0814.1,4.99,0.00,22.1,21.5,00.0,31.2,23.7,07.2,0000.0,0007.54,0002.44,0001.24
2021-12-29 18:18:00,,0813.9,4.99,0.00,22.1,21.7,00.0,31.2,23.8,07.3,0000.0,0008.24,0002.50,0001.24
2021-12-29 18:19:00,,0814.4,5.01,0.00,22.2,22.5,00.0,31.2,24.1,07.2,0000.0,0008.51,0002.56,0001.24
2021-12-29 18:20:00,,0814.4,5.00,0.00,22.4,23.4,00.0,31.3,24.4,07.2,0000.0,0009.06,0002.53,0001.24
2021-12-29 18:21:00,,0814.3,5.00,0.00,22.5,23.5,00.0,31.3,24.5,07.1,0000.0,0008.99,0002.54,0001.26
2021-12-29 18:22:00,,0814.1,5.00,0.00,22.6,23.2,00.0,31.4,24.4,07.1,0000.0,0009.10,0002.54,0001.25
2021-12-29 18:23:00,,0813.9,5.00,0.00,22.5,22.9,00.0,31.4,24.3,07.1,0000.0,0009.43,0002.59,0001.25
2021-12-29 18:24:00,,0814.2,4.99,0.00,22.5,22.6,00.0,31.4,24.2,07.1,0000.0,0009.44,0002.58,0001.24
2021-12-29 18:25:00,,0814.0,5.00,0.00,22.5,22.4,00.0,31.4,24.2,07.1,0000.0,0009.25,0002.56,0001.24
2021-12-29 18:26:00,,0814.2,5.00,0.00,22.5,22.3,00.0,31.4,24.1,07.1,0000.0,0009.95,0002.63,0001.24
2021-12-29 18:27:00,,0814.2,5.00,0.00,22.5,22.2,00.0,31.4,24.1,07.2,0000.0,0010.31,0002.63,0001.22
2021-12-29 18:28:00,,0813.9,5.00,0.00,22.4,22.1,00.0,31.4,24.1,07.2,0000.0,0010.62,0002.58,0001.21
2021-12-29 18:29:00,,0814.0,5.01,0.00,22.4,22.0,00.0,31.4,24.0,07.3,0000.0,0010.24,0002.62,0001.21
2021-12-29 18:30:00,,0814.1,4.99,0.00,22.4,21.9,00.0,31.4,24.0,07.3,0000.0,0010.46,0002.66,0001.22
2021-12-29 18:31:00,,0814.2,5.00,0.00,22.4,21.9,00.0,31.4,23.9,07.2,0000.0,0011.11,0002.64,0001.22
2021-12-29 18:32:00,,0813.9,5.00,0.00,22.3,21.8,00.0,31.4,23.9,07.2,0000.0,0011.26,0002.62,0001.20
2021-12-29 18:33:00,,0813.6,5.01,0.00,22.3,21.7,00.0,31.4,23.9,07.2,0000.0,0011.23,0002.60,0001.20
2021-12-29 18:34:00,,0813.6,5.00,0.00,22.3,21.7,00.0,31.4,23.9,07.3,0000.0,0011.39,0002.56,0001.20
2021-12-29 18:35:00,,0813.7,5.01,0.00,22.3,21.6,00.0,31.4,23.8,07.3,0000.0,0011.70,0002.53,0001.20
2021-12-29 18:36:00,,0814.1,5.00,0.00,22.2,21.6,00.0,31.4,23.8,07.3,0000.0,0011.93,0002.52,0001.20
2021-12-29 18:37:00,,0813.9,4.99,0.00,22.2,21.5,00.0,31.3,23.7,07.3,0000.0,0011.54,0002.38,0001.20
2021-12-29 18:38:00,,0813.8,4.98,0.00,22.1,21.4,00.0,31.3,23.7,07.3,0000.0,0010.98,0002.28,0001.19
2021-12-29 18:39:00,,0813.7,5.01,0.00,22.1,21.4,00.0,31.3,23.6,07.4,0000.0,0011.01,0002.27,0001.17
2021-12-29 18:40:00,,0813.5,5.01,0.00,22.1,21.4,00.0,31.3,23.6,07.4,0000.0,0010.80,0002.17,0001.17
2021-12-29 18:41:00,,0813.5,4.99,0.00,22.0,21.3,00.0,31.2,23.6,07.4,0000.0,0010.09,0002.06,0001.15
2021-12-29 18:42:00,,0813.5,5.00,0.00,22.0,21.5,00.0,31.2,23.6,07.4,0000.0,0008.78,0002.03,0001.15
2021-12-29 18:43:00,,0813.6,5.00,0.00,22.1,22.3,00.0,31.3,23.9,07.3,0000.0,0008.86,0002.04,0001.15
2021-12-29 18:44:00,,0813.5,5.01,0.00,22.3,23.3,00.0,31.3,24.3,07.3,0000.0,0009.36,0002.05,0001.17
2021-12-29 18:45:00,,0813.5,4.99,0.00,22.4,23.3,00.0,31.3,24.4,07.3,0000.0,0009.21,0002.09,0001.18
2021-12-29 18:46:00,,0813.5,5.01,0.00,22.4,23.0,00.0,31.3,24.2,07.3,0000.0,0008.68,0002.06,0001.19
2021-12-29 18:47:00,,0813.4,4.99,0.00,22.4,22.8,00.0,31.4,24.1,07.3,0000.0,0008.50,0002.18,0001.19
2021-12-29 18:48:00,,0813.4,5.01,0.00,22.4,22.5,00.0,31.4,24.1,07.3,0000.0,0008.37,0002.26,0001.20
2021-12-29 18:49:00,,0813.4,4.99,0.00,22.4,22.3,00.0,31.4,24.0,07.3,0000.0,0008.94,0002.30,0001.23
2021-12-29 18:50:00,,0813.4,5.00,0.00,22.3,22.1,00.0,31.4,23.9,07.3,0000.0,0008.80,0002.29,0001.25
2021-12-29 18:51:00,,0813.3,5.00,0.00,22.3,22.0,00.0,31.3,23.8,07.3,0000.0,0008.91,0002.33,0001.25
2021-12-29 18:52:00,,0813.3,5.00,0.00,22.2,21.9,00.0,31.3,23.8,07.2,0000.0,0009.94,0002.43,0001.26
2021-12-29 18:53:00,,0813.3,4.99,0.00,22.2,21.8,00.0,31.3,23.8,07.2,0000.0,0010.43,0002.48,0001.26
2021-12-29 18:54:00,,0813.3,5.00,0.00,22.2,21.7,00.0,31.3,23.7,07.2,0000.0,0010.23,0002.50,0001.28
2021-12-29 18:55:00,,0813.3,5.01,0.00,22.1,21.6,00.0,31.3,23.7,07.3,0000.0,0009.91,0002.49,0001.29
2021-12-29 18:56:00,,0813.3,5.01,0.00,22.1,21.5,00.0,31.3,23.6,07.3,0000.0,0010.53,0002.53,0001.31
2021-12-29 18:57:00,,0813.3,5.00,0.00,22.1,21.5,00.0,31.3,23.6,07.3,0000.0,0010.49,0002.60,0001.34
2021-12-29 18:58:00,,0813.3,5.00,0.00,22.1,21.4,00.0,31.2,23.6,07.3,0000.0,0010.37,0002.53,0001.35
2021-12-29 18:59:00,,0813.3,5.00,0.00,22.0,21.4,00.0,31.2,23.6,07.3,0000.0,0010.22,0002.51,0001.38
